FCYMT VYLS-VYBM

Flight info

Callsign FCYMT
Flight time 0h 40m
Altitude 7000
Route 2305N09724E 2309N09658E 2329N09652E
Aircraft PC12/L-SDFGRWY/S

Departure

Time 2026-04-22 18:50
Airport Lashio Airport (VYLS)

Arrival

Time 2026-04-22 19:31
Airport Banmaw Airport (VYBM)
Time Latitude Longitude Altitude Speed Heading
2026-04-22 18:33 22.97512 97.75393 2511 ft 0 kts 116°
2026-04-22 18:46 22.97510 97.75396 2500 ft 3 kts 141°
2026-04-22 18:46 22.97501 97.75393 2514 ft 1 kts 244°
2026-04-22 18:46 22.97510 97.75374 2508 ft 7 kts 308°
2026-04-22 18:46 22.97546 97.75317 2507 ft 1 kts 296°
2026-04-22 18:47 22.97550 97.75306 2509 ft 5 kts 294°
2026-04-22 18:47 22.97562 97.75275 2510 ft 1 kts 292°
2026-04-22 18:47 22.97564 97.75272 2510 ft 0 kts 292°
2026-04-22 18:48 22.97565 97.75268 2511 ft 4 kts 291°
2026-04-22 18:48 22.97544 97.75231 2511 ft 2 kts 198°
2026-04-22 18:49 22.97474 97.75220 2510 ft 18 kts 187°
2026-04-22 18:49 22.97387 97.75213 2516 ft 10 kts 184°
2026-04-22 18:49 22.97294 97.75216 2517 ft 13 kts 169°
2026-04-22 18:49 22.97288 97.75195 2519 ft 0 kts
2026-04-22 18:50 22.97303 97.75195 2519 ft 14 kts 358°
2026-04-22 18:50 22.97644 97.75225 2513 ft 80 kts
2026-04-22 18:50 22.98307 97.75355 2714 ft 105 kts
2026-04-22 18:50 22.98949 97.75355 3154 ft 100 kts 328°
2026-04-22 18:51 22.99371 97.74805 3542 ft 93 kts 289°
2026-04-22 18:51 22.99498 97.74097 4087 ft 97 kts 280°
2026-04-22 18:51 22.99554 97.73321 4427 ft 117 kts 276°
2026-04-22 18:51 22.99630 97.72394 4467 ft 134 kts 273°
2026-04-22 18:52 22.99694 97.71355 5129 ft 132 kts 271°
2026-04-22 18:52 22.99665 97.70374 5997 ft 125 kts 265°
2026-04-22 18:52 22.99501 97.69471 6765 ft 121 kts 256°
2026-04-22 18:52 22.99308 97.68909 7243 ft 119 kts 248°
2026-04-22 18:53 22.98918 97.68122 7904 ft 118 kts 242°
2026-04-22 18:53 22.98918 97.67308 8519 ft 119 kts 306°
2026-04-22 18:53 22.99564 97.66681 8933 ft 139 kts 307°
2026-04-22 18:53 23.00086 97.65601 8836 ft 185 kts 290°
2026-04-22 18:54 23.00706 97.63693 8737 ft 216 kts 287°
2026-04-22 18:54 23.01206 97.62095 8678 ft 230 kts 288°
2026-04-22 18:54 23.01558 97.60979 8657 ft 232 kts 287°
2026-04-22 18:54 23.02082 97.59325 8673 ft 232 kts 288°
2026-04-22 18:55 23.02606 97.57675 8679 ft 229 kts 289°
2026-04-22 18:55 23.03118 97.56048 8678 ft 227 kts 289°
2026-04-22 18:55 23.03626 97.54445 8673 ft 228 kts 288°
2026-04-22 18:55 23.04150 97.52789 8676 ft 228 kts 288°
2026-04-22 18:56 23.04662 97.51165 8675 ft 228 kts 288°
2026-04-22 18:56 23.05166 97.49560 8673 ft 228 kts 289°
2026-04-22 18:56 23.05677 97.47935 8675 ft 228 kts 289°
2026-04-22 18:56 23.06197 97.46302 8689 ft 228 kts 289°
2026-04-22 18:57 23.06713 97.44672 8688 ft 229 kts 289°
2026-04-22 18:57 23.07225 97.43044 8687 ft 229 kts 289°
2026-04-22 18:57 23.07740 97.41404 8685 ft 230 kts 289°
2026-04-22 18:57 23.08236 97.39758 8685 ft 229 kts 285°
2026-04-22 18:58 23.08533 97.38063 8685 ft 228 kts 281°
2026-04-22 18:58 23.08823 97.36374 8681 ft 227 kts 282°
2026-04-22 18:58 23.09122 97.34691 8695 ft 227 kts 283°
2026-04-22 18:58 23.09420 97.32995 8684 ft 229 kts 282°
2026-04-22 18:59 23.09715 97.31295 8686 ft 229 kts 281°
2026-04-22 18:59 23.10008 97.29589 8671 ft 228 kts 281°
2026-04-22 18:59 23.10301 97.27901 8694 ft 228 kts 281°
2026-04-22 18:59 23.10594 97.26204 8688 ft 228 kts 282°
2026-04-22 19:00 23.10888 97.24505 8699 ft 230 kts 281°
2026-04-22 19:00 23.11185 97.22797 8700 ft 229 kts 281°
2026-04-22 19:00 23.11478 97.21094 8696 ft 230 kts 281°
2026-04-22 19:00 23.11774 97.19383 8687 ft 229 kts 282°
2026-04-22 19:01 23.12067 97.17683 8695 ft 229 kts 281°
2026-04-22 19:01 23.12360 97.15978 8693 ft 229 kts 282°
2026-04-22 19:01 23.12650 97.14284 8694 ft 227 kts 281°
2026-04-22 19:01 23.12943 97.12590 8695 ft 230 kts 281°
2026-04-22 19:02 23.13238 97.10876 8699 ft 232 kts 281°
2026-04-22 19:02 23.13535 97.09147 8696 ft 232 kts 282°
2026-04-22 19:02 23.13832 97.07429 8703 ft 230 kts 282°
2026-04-22 19:02 23.14120 97.05747 8702 ft 229 kts 282°
2026-04-22 19:03 23.14410 97.04058 8698 ft 227 kts 281°
2026-04-22 19:03 23.14699 97.02373 8705 ft 227 kts 281°
2026-04-22 19:03 23.14987 97.00681 8707 ft 228 kts 281°
2026-04-22 19:03 23.15465 96.99038 8692 ft 229 kts 294°
2026-04-22 19:04 23.16277 96.97552 8691 ft 229 kts 305°
2026-04-22 19:04 23.17375 96.96294 8690 ft 231 kts 316°
2026-04-22 19:04 23.18717 96.95326 8694 ft 232 kts 328°
2026-04-22 19:04 23.20242 96.94700 8691 ft 238 kts 340°
2026-04-22 19:05 23.21857 96.94272 8684 ft 238 kts 340°
2026-04-22 19:05 23.23463 96.93833 8684 ft 238 kts 340°
2026-04-22 19:05 23.25067 96.93392 8683 ft 238 kts 340°
2026-04-22 19:05 23.26673 96.92956 8681 ft 237 kts 340°
2026-04-22 19:06 23.28277 96.92521 8687 ft 241 kts 341°
2026-04-22 19:06 23.29912 96.92075 8681 ft 243 kts 342°
2026-04-22 19:06 23.31558 96.91631 8684 ft 244 kts 341°
2026-04-22 19:07 23.34856 96.90729 8675 ft 245 kts 341°
2026-04-22 19:07 23.36512 96.90279 8673 ft 246 kts 341°
2026-04-22 19:07 23.38171 96.89829 8672 ft 246 kts 341°
2026-04-22 19:07 23.39826 96.89377 8671 ft 245 kts 341°
2026-04-22 19:08 23.41473 96.88927 8666 ft 243 kts 342°
2026-04-22 19:08 23.43116 96.88478 8671 ft 244 kts 341°
2026-04-22 19:08 23.44769 96.88030 8672 ft 245 kts 341°
2026-04-22 19:08 23.46423 96.87579 8670 ft 245 kts 341°
2026-04-22 19:09 23.48105 96.87255 8654 ft 249 kts 352°
2026-04-22 19:09 23.49843 96.87397 8651 ft 255 kts
2026-04-22 19:09 23.51539 96.88019 8654 ft 259 kts 19°
2026-04-22 19:09 23.53188 96.88828 8659 ft 260 kts 19°
2026-04-22 19:10 23.54821 96.89613 8658 ft 260 kts 18°
2026-04-22 19:10 23.56479 96.90410 8611 ft 261 kts 19°
2026-04-22 19:10 23.58161 96.91221 8321 ft 267 kts 19°
2026-04-22 19:10 23.59869 96.92051 7992 ft 269 kts 20°
2026-04-22 19:11 23.61584 96.92878 7662 ft 269 kts 20°
2026-04-22 19:11 23.63298 96.93707 7330 ft 269 kts 20°
2026-04-22 19:11 23.65010 96.94536 7003 ft 269 kts 21°
2026-04-22 19:11 23.66710 96.95359 6677 ft 267 kts 21°
2026-04-22 19:12 23.68403 96.96179 6358 ft 266 kts 21°
2026-04-22 19:12 23.70095 96.96998 6033 ft 264 kts 21°
2026-04-22 19:12 23.71766 96.97807 5740 ft 263 kts 22°
2026-04-22 19:12 23.73437 96.98616 5440 ft 261 kts 21°
2026-04-22 19:13 23.75097 96.99420 5175 ft 260 kts 21°
2026-04-22 19:13 23.76751 97.00223 4903 ft 260 kts 22°
2026-04-22 19:13 23.78407 97.01024 4714 ft 259 kts 22°
2026-04-22 19:13 23.80051 97.01823 4519 ft 258 kts 23°
2026-04-22 19:14 23.81682 97.02615 4319 ft 257 kts 22°
2026-04-22 19:14 23.83319 97.03408 4129 ft 257 kts 22°
2026-04-22 19:14 23.84955 97.04202 3927 ft 258 kts 22°
2026-04-22 19:14 23.86583 97.04993 3736 ft 255 kts 22°
2026-04-22 19:15 23.87656 97.05514 3616 ft 255 kts 23°
2026-04-22 19:15 23.89815 97.06563 3357 ft 253 kts 22°
2026-04-22 19:15 23.91414 97.07340 3179 ft 253 kts 21°
2026-04-22 19:15 23.93026 97.08120 2989 ft 253 kts 22°
2026-04-22 19:16 23.94630 97.08904 2814 ft 253 kts 22°
2026-04-22 19:16 23.96215 97.09675 2833 ft 247 kts 23°
2026-04-22 19:16 23.97782 97.10438 2828 ft 247 kts 22°
2026-04-22 19:16 23.99358 97.11202 2818 ft 247 kts 22°
2026-04-22 19:17 24.00934 97.11970 2823 ft 248 kts 21°
2026-04-22 19:17 24.02512 97.12732 2823 ft 247 kts 21°
2026-04-22 19:17 24.04075 97.13495 2816 ft 245 kts 23°
2026-04-22 19:17 24.05631 97.14261 2826 ft 245 kts 23°
2026-04-22 19:18 24.07204 97.15024 2837 ft 250 kts 21°
2026-04-22 19:18 24.08798 97.15801 2842 ft 249 kts 22°
2026-04-22 19:18 24.10374 97.16570 2830 ft 246 kts 22°
2026-04-22 19:18 24.11853 97.17483 2844 ft 248 kts 40°
2026-04-22 19:19 24.12889 97.19017 2826 ft 251 kts 59°
2026-04-22 19:19 24.13766 97.20669 2834 ft 250 kts 59°
2026-04-22 19:19 24.14628 97.22336 2834 ft 253 kts 60°
2026-04-22 19:19 24.15491 97.24007 2835 ft 253 kts 59°
2026-04-22 19:20 24.16410 97.25639 2839 ft 249 kts 54°
2026-04-22 19:20 24.17727 97.26810 2819 ft 246 kts 18°
2026-04-22 19:20 24.19393 97.27024 2770 ft 242 kts 354°
2026-04-22 19:20 24.21051 97.26999 2828 ft 232 kts 355°
2026-04-22 19:21 24.22598 97.26616 2982 ft 236 kts 339°
2026-04-22 19:21 24.24123 97.25865 2775 ft 244 kts 329°
2026-04-22 19:21 24.25624 97.25026 2697 ft 243 kts 331°
2026-04-22 19:21 24.27153 97.24228 2637 ft 232 kts 341°
2026-04-22 19:22 24.28757 97.24341 2869 ft 239 kts 22°
2026-04-22 19:22 24.30061 97.25508 2740 ft 252 kts 54°
2026-04-22 19:22 24.30721 97.27253 2768 ft 245 kts 81°
2026-04-22 19:22 24.30488 97.29021 3069 ft 235 kts 117°
2026-04-22 19:23 24.29344 97.30269 3115 ft 236 kts 150°
2026-04-22 19:23 24.27794 97.30911 3002 ft 237 kts 171°
2026-04-22 19:23 24.26175 97.31405 2772 ft 243 kts 161°
2026-04-22 19:23 24.24673 97.32248 2662 ft 237 kts 155°
2026-04-22 19:24 24.23270 97.32981 3268 ft 216 kts 159°
2026-04-22 19:24 24.21902 97.33591 3922 ft 207 kts 161°
2026-04-22 19:24 24.20434 97.34060 3660 ft 236 kts 180°
2026-04-22 19:24 24.18752 97.33855 3064 ft 246 kts 194°
2026-04-22 19:25 24.17179 97.33326 3113 ft 230 kts 210°
2026-04-22 19:25 24.15811 97.32406 2925 ft 228 kts 215°
2026-04-22 19:25 24.14586 97.31392 3192 ft 219 kts 230°
2026-04-22 19:25 24.13851 97.29973 3447 ft 213 kts 253°
2026-04-22 19:26 24.13861 97.28580 4162 ft 158 kts 285°
2026-04-22 19:26 24.14502 97.27696 3945 ft 150 kts 321°
2026-04-22 19:26 24.15531 97.27233 3305 ft 169 kts 338°
2026-04-22 19:26 24.16650 97.27059 2941 ft 146 kts 357°
2026-04-22 19:27 24.17585 97.27283 2413 ft 140 kts 14°
2026-04-22 19:27 24.18431 97.27789 2153 ft 135 kts 40°
2026-04-22 19:27 24.18993 97.28628 1947 ft 138 kts 64°
2026-04-22 19:27 24.19289 97.29597 1708 ft 137 kts 71°
2026-04-22 19:28 24.19851 97.30437 1487 ft 137 kts 30°
2026-04-22 19:28 24.20726 97.30628 1301 ft 128 kts 346°
2026-04-22 19:28 24.21532 97.30314 1178 ft 120 kts 332°
2026-04-22 19:28 24.22283 97.29912 1227 ft 121 kts 327°
2026-04-22 19:29 24.22915 97.29300 1247 ft 124 kts 302°
2026-04-22 19:29 24.23355 97.28481 1104 ft 122 kts 297°
2026-04-22 19:29 24.23791 97.27686 1017 ft 122 kts 301°
2026-04-22 19:29 24.24314 97.26963 985 ft 120 kts 307°
2026-04-22 19:30 24.24687 97.26536 879 ft 114 kts 312°
2026-04-22 19:30 24.25484 97.25872 701 ft 100 kts 318°
2026-04-22 19:30 24.26042 97.25451 474 ft 93 kts 322°
2026-04-22 19:30 24.26545 97.25100 381 ft 76 kts 328°
2026-04-22 19:31 24.26802 97.24902 380 ft 13 kts 293°
2026-04-22 19:31 24.26802 97.24832 381 ft 0 kts 239°